Time,TemperatureF,DewpointF,PressureIn,WindDirection,WindDirectionDegrees,WindSpeedMPH,WindSpeedGustMPH,Humidity,HourlyPrecipIn,Conditions,Clouds,dailyrainin,SoftwareType,DateUTC
2013-02-20 00:00:00,26.4,21.8,29.92,SSE,158,0.0,0.0,83,0.00,,,0.00,WUHU216HW,2013-02-20 07:00:00,
2013-02-20 00:05:00,26.4,21.8,29.92,SSE,158,0.0,0.0,83,0.00,,,0.00,WUHU216HW,2013-02-20 07:05:00,
2013-02-20 00:10:00,26.4,21.8,29.92,SSE,158,0.0,0.0,83,0.00,,,0.00,WUHU216HW,2013-02-20 07:10:00,
2013-02-20 00:15:00,26.6,22.0,29.92,SSE,158,0.0,0.0,83,0.00,,,0.00,WUHU216HW,2013-02-20 07:15:00,
2013-02-20 00:20:00,26.6,22.0,29.92,SSE,158,0.0,0.0,83,0.00,,,0.00,WUHU216HW,2013-02-20 07:20:00,
2013-02-20 00:25:00,26.6,22.0,29.92,SSE,158,0.0,0.0,83,0.00,,,0.00,WUHU216HW,2013-02-20 07:25:00,
2013-02-20 00:30:00,26.6,22.0,29.92,SSE,158,0.0,0.0,83,0.00,,,0.00,WUHU216HW,2013-02-20 07:30:00,
2013-02-20 00:35:00,26.6,22.0,29.92,SSE,158,0.0,0.0,83,0.00,,,0.00,WUHU216HW,2013-02-20 07:35:00,
2013-02-20 00:40:00,26.6,22.0,29.92,SSE,158,0.0,0.0,83,0.00,,,0.00,WUHU216HW,2013-02-20 07:40:00,
2013-02-20 00:45:00,26.6,22.0,29.92,SSE,158,0.0,0.0,83,0.00,,,0.00,WUHU216HW,2013-02-20 07:45:00,
2013-02-20 00:50:00,26.6,22.0,29.92,SSE,158,0.0,0.0,83,0.00,,,0.00,WUHU216HW,2013-02-20 07:50:00,
2013-02-20 00:55:00,26.4,21.8,29.92,SSE,158,0.0,0.0,83,0.00,,,0.00,WUHU216HW,2013-02-20 07:55:00,
2013-02-20 01:00:00,26.4,21.8,29.92,SSE,158,0.0,0.0,83,0.00,,,0.00,WUHU216HW,2013-02-20 08:00:00,
2013-02-20 01:05:00,26.4,21.8,29.92,SSE,158,0.0,0.0,83,0.00,,,0.00,WUHU216HW,2013-02-20 08:05:00,
2013-02-20 01:11:00,26.4,21.8,29.92,SSE,158,0.0,0.0,83,0.00,,,0.00,WUHU216HW,2013-02-20 08:11:00,
2013-02-20 01:16:00,26.4,21.8,29.92,South,180,0.0,1.7,83,0.00,,,0.00,WUHU216HW,2013-02-20 08:16:00,
2013-02-20 01:22:00,26.4,21.8,29.92,South,180,0.0,1.7,83,0.00,,,0.00,WUHU216HW,2013-02-20 08:22:00,
2013-02-20 01:27:00,26.4,21.8,29.92,South,180,0.0,0.0,83,0.00,,,0.00,WUHU216HW,2013-02-20 08:27:00,
2013-02-20 01:32:00,26.4,21.8,29.93,South,180,0.0,0.0,83,0.00,,,0.00,WUHU216HW,2013-02-20 08:32:00,
2013-02-20 01:38:00,26.4,21.8,29.93,South,180,0.0,0.0,83,0.00,,,0.00,WUHU216HW,2013-02-20 08:38:00,
2013-02-20 01:43:00,26.4,21.8,29.92,South,180,0.0,0.0,83,0.00,,,0.00,WUHU216HW,2013-02-20 08:43:00,
2013-02-20 01:48:00,26.2,21.7,29.93,South,180,0.0,0.0,83,0.00,,,0.00,WUHU216HW,2013-02-20 08:48:00,
2013-02-20 01:53:00,26.2,21.7,29.93,South,180,0.0,0.0,83,0.00,,,0.00,WUHU216HW,2013-02-20 08:53:00,
2013-02-20 01:59:00,26.2,21.7,29.93,South,180,0.0,0.0,83,0.00,,,0.00,WUHU216HW,2013-02-20 08:59:00,
2013-02-20 02:04:00,26.0,21.5,29.93,South,180,0.0,0.0,83,0.00,,,0.00,WUHU216HW,2013-02-20 09:04:00,
2013-02-20 02:09:00,25.8,21.3,29.93,South,180,0.0,0.0,83,0.00,,,0.00,WUHU216HW,2013-02-20 09:09:00,
2013-02-20 02:14:00,25.8,21.6,29.93,South,180,0.0,0.0,84,0.00,,,0.00,WUHU216HW,2013-02-20 09:14:00,
2013-02-20 02:19:00,25.8,21.6,29.93,South,180,0.0,0.0,84,0.00,,,0.00,WUHU216HW,2013-02-20 09:19:00,
2013-02-20 02:24:00,25.7,21.5,29.93,South,180,0.0,0.0,84,0.00,,,0.00,WUHU216HW,2013-02-20 09:24:00,
2013-02-20 02:29:00,25.7,21.5,29.93,South,180,0.0,0.0,84,0.00,,,0.00,WUHU216HW,2013-02-20 09:29:00,
2013-02-20 02:34:00,25.5,21.3,29.93,South,180,0.0,0.0,84,0.00,,,0.00,WUHU216HW,2013-02-20 09:34:00,
2013-02-20 02:39:00,25.5,21.3,29.93,South,180,0.0,0.0,84,0.00,,,0.00,WUHU216HW,2013-02-20 09:39:00,
2013-02-20 02:44:00,25.5,21.0,29.94,South,180,0.0,0.0,83,0.00,,,0.00,WUHU216HW,2013-02-20 09:44:00,
2013-02-20 02:49:00,25.5,21.3,29.94,South,180,0.0,0.0,84,0.00,,,0.00,WUHU216HW,2013-02-20 09:49:00,
2013-02-20 02:54:00,25.5,21.3,29.94,SSW,203,1.5,1.5,84,0.00,,,0.00,WUHU216HW,2013-02-20 09:54:00,
2013-02-20 02:59:00,25.5,21.3,29.94,SSW,203,0.0,1.5,84,0.00,,,0.00,WUHU216HW,2013-02-20 09:59:00,
2013-02-20 03:04:00,25.7,21.5,29.94,SSW,203,0.0,0.0,84,0.00,,,0.00,WUHU216HW,2013-02-20 10:04:00,
2013-02-20 03:10:00,25.8,21.6,29.94,SSW,203,0.0,0.0,84,0.00,,,0.00,WUHU216HW,2013-02-20 10:10:00,
2013-02-20 03:15:00,25.8,21.6,29.94,SSW,203,0.0,0.0,84,0.00,,,0.00,WUHU216HW,2013-02-20 10:15:00,
2013-02-20 03:20:00,26.0,22.1,29.93,SSW,203,0.0,0.0,85,0.00,,,0.00,WUHU216HW,2013-02-20 10:20:00,
2013-02-20 03:25:00,26.2,22.2,29.93,SSW,203,0.0,0.0,85,0.00,,,0.00,WUHU216HW,2013-02-20 10:25:00,
2013-02-20 03:30:00,26.2,22.2,29.94,SSW,203,0.0,0.0,85,0.00,,,0.00,WUHU216HW,2013-02-20 10:30:00,
2013-02-20 03:35:00,26.2,22.2,29.93,SSW,203,0.0,0.0,85,0.00,,,0.00,WUHU216HW,2013-02-20 10:35:00,
2013-02-20 03:40:00,26.2,22.2,29.94,SSW,203,0.0,0.0,85,0.00,,,0.00,WUHU216HW,2013-02-20 10:40:00,
2013-02-20 03:45:00,26.2,22.2,29.94,SSW,203,0.0,0.0,85,0.00,,,0.00,WUHU216HW,2013-02-20 10:45:00,
2013-02-20 03:50:00,26.2,22.2,29.94,SSW,203,0.0,0.0,85,0.00,,,0.00,WUHU216HW,2013-02-20 10:50:00,
2013-02-20 03:55:00,26.2,22.2,29.94,SSW,203,0.0,0.0,85,0.00,,,0.00,WUHU216HW,2013-02-20 10:55:00,
2013-02-20 04:01:00,26.2,22.2,29.94,SSW,203,0.0,0.0,85,0.00,,,0.00,WUHU216HW,2013-02-20 11:01:00,
2013-02-20 04:06:00,26.2,22.2,29.94,SSW,203,0.0,0.0,85,0.00,,,0.00,WUHU216HW,2013-02-20 11:06:00,
2013-02-20 04:11:00,26.2,22.2,29.94,SW,225,0.0,0.0,85,0.00,,,0.00,WUHU216HW,2013-02-20 11:11:00,
2013-02-20 04:17:00,26.2,22.2,29.94,SW,225,0.0,0.0,85,0.00,,,0.00,WUHU216HW,2013-02-20 11:17:00,
2013-02-20 04:22:00,26.2,22.2,29.94,WSW,248,0.0,0.0,85,0.00,,,0.00,WUHU216HW,2013-02-20 11:22:00,
2013-02-20 04:27:00,26.2,22.2,29.94,SW,225,0.0,0.0,85,0.00,,,0.00,WUHU216HW,2013-02-20 11:27:00,
2013-02-20 04:32:00,26.2,22.2,29.94,SW,225,0.0,2.2,85,0.00,,,0.00,WUHU216HW,2013-02-20 11:32:00,
2013-02-20 04:37:00,26.2,22.5,29.94,SW,225,0.0,2.2,86,0.00,,,0.00,WUHU216HW,2013-02-20 11:37:00,
2013-02-20 04:42:00,26.4,22.7,29.94,SW,225,0.0,2.2,86,0.00,,,0.00,WUHU216HW,2013-02-20 11:42:00,
2013-02-20 04:47:00,26.4,22.7,29.94,SW,225,2.9,4.4,86,0.00,,,0.00,WUHU216HW,2013-02-20 11:47:00,
2013-02-20 04:52:00,26.4,22.7,29.94,SW,225,0.0,5.8,86,0.00,,,0.00,WUHU216HW,2013-02-20 11:52:00,
2013-02-20 04:57:00,26.6,22.6,29.94,SSW,203,0.0,7.1,85,0.00,,,0.00,WUHU216HW,2013-02-20 11:57:00,
2013-02-20 05:02:00,26.6,22.6,29.94,SSW,203,2.6,7.1,85,0.00,,,0.00,WUHU216HW,2013-02-20 12:02:00,
2013-02-20 05:07:00,26.6,22.6,29.94,SW,225,0.0,5.3,85,0.00,,,0.00,WUHU216HW,2013-02-20 12:07:00,
2013-02-20 05:12:00,26.6,22.6,29.94,SW,225,2.9,5.3,85,0.00,,,0.00,WUHU216HW,2013-02-20 12:12:00,
2013-02-20 05:17:00,26.6,22.6,29.95,SW,225,5.1,5.3,85,0.00,,,0.00,WUHU216HW,2013-02-20 12:17:00,
2013-02-20 05:22:00,26.4,22.4,29.94,SW,225,1.3,5.5,85,0.00,,,0.00,WUHU216HW,2013-02-20 12:22:00,
2013-02-20 05:27:00,26.4,22.1,29.94,SW,225,0.0,5.5,84,0.00,,,0.00,WUHU216HW,2013-02-20 12:27:00,
2013-02-20 05:32:00,26.2,22.0,29.94,SW,225,2.6,3.1,84,0.00,,,0.00,WUHU216HW,2013-02-20 12:32:00,
2013-02-20 05:37:00,26.2,22.0,29.95,SSW,203,2.4,2.9,84,0.00,,,0.00,WUHU216HW,2013-02-20 12:37:00,
2013-02-20 05:42:00,26.0,21.8,29.94,SSW,203,3.8,4.0,84,0.00,,,0.00,WUHU216HW,2013-02-20 12:42:00,
2013-02-20 05:47:00,25.7,21.5,29.95,SSW,203,2.6,4.0,84,0.00,,,0.00,WUHU216HW,2013-02-20 12:47:00,
2013-02-20 05:52:00,25.5,21.3,29.95,SSW,203,1.5,4.4,84,0.00,,,0.00,WUHU216HW,2013-02-20 12:52:00,
2013-02-20 05:57:00,25.5,21.3,29.95,SSW,203,3.8,6.9,84,0.00,,,0.00,WUHU216HW,2013-02-20 12:57:00,
2013-02-20 06:02:00,25.5,21.3,29.95,SSW,203,0.0,6.9,84,0.00,,,0.00,WUHU216HW,2013-02-20 13:02:00,
2013-02-20 06:07:00,25.3,21.1,29.95,SSW,203,3.1,3.1,84,0.00,,,0.00,WUHU216HW,2013-02-20 13:07:00,
2013-02-20 06:12:00,25.5,21.3,29.95,SSW,203,0.0,3.1,84,0.00,,,0.00,WUHU216HW,2013-02-20 13:12:00,
2013-02-20 06:18:00,25.5,21.0,29.95,SSW,203,2.0,2.6,83,0.00,,,0.00,WUHU216HW,2013-02-20 13:18:00,
2013-02-20 06:23:00,25.3,21.0,29.95,SW,225,3.3,4.6,83,0.00,,,0.00,WUHU216HW,2013-02-20 13:23:00,
2013-02-20 06:28:00,25.5,21.0,29.96,SSW,203,6.2,7.3,83,0.00,,,0.00,WUHU216HW,2013-02-20 13:28:00,
2013-02-20 06:33:00,25.5,21.0,29.96,South,180,3.3,7.3,83,0.00,,,0.00,WUHU216HW,2013-02-20 13:33:00,
2013-02-20 06:38:00,25.7,21.5,29.96,SSW,203,4.4,4.4,84,0.00,,,0.00,WUHU216HW,2013-02-20 13:38:00,
2013-02-20 06:43:00,25.7,21.2,29.96,SW,225,0.6,4.9,83,0.00,,,0.00,WUHU216HW,2013-02-20 13:43:00,
2013-02-20 06:48:00,25.8,21.3,29.96,SSW,203,3.5,4.9,83,0.00,,,0.00,WUHU216HW,2013-02-20 13:48:00,
2013-02-20 06:53:00,25.8,21.3,29.96,SSW,203,2.4,3.5,83,0.00,,,0.00,WUHU216HW,2013-02-20 13:53:00,
2013-02-20 06:58:00,25.8,21.3,29.96,SW,225,3.1,8.5,83,0.00,,,0.00,WUHU216HW,2013-02-20 13:58:00,
2013-02-20 07:03:00,25.8,21.3,29.96,SW,225,0.0,8.5,83,0.00,,,0.00,WUHU216HW,2013-02-20 14:03:00,
2013-02-20 07:08:00,26.0,21.5,29.96,SSW,203,0.0,4.6,83,0.00,,,0.00,WUHU216HW,2013-02-20 14:08:00,
2013-02-20 07:13:00,26.2,21.7,29.96,SSW,203,4.4,5.5,83,0.00,,,0.00,WUHU216HW,2013-02-20 14:13:00,
2013-02-20 07:18:00,26.2,21.7,29.97,SW,225,3.1,5.5,83,0.00,,,0.00,WUHU216HW,2013-02-20 14:18:00,
2013-02-20 07:23:00,26.2,21.4,29.97,SW,225,4.6,5.8,82,0.00,,,0.00,WUHU216HW,2013-02-20 14:23:00,
2013-02-20 07:29:00,26.4,21.5,29.97,SSW,203,3.3,5.8,82,0.00,,,0.00,WUHU216HW,2013-02-20 14:29:00,
2013-02-20 07:34:00,26.4,21.5,29.97,SW,225,3.1,4.6,82,0.00,,,0.00,WUHU216HW,2013-02-20 14:34:00,
2013-02-20 07:39:00,26.4,21.5,29.97,SW,225,4.4,4.6,82,0.00,,,0.00,WUHU216HW,2013-02-20 14:39:00,
2013-02-20 07:44:00,26.6,21.7,29.97,SW,225,1.5,4.4,82,0.00,,,0.00,WUHU216HW,2013-02-20 14:44:00,
2013-02-20 07:49:00,26.7,21.9,29.97,SSW,203,2.6,5.3,82,0.00,,,0.00,WUHU216HW,2013-02-20 14:49:00,
2013-02-20 07:55:00,26.7,21.6,29.97,SW,225,1.1,5.3,81,0.00,,,0.00,WUHU216HW,2013-02-20 14:55:00,
2013-02-20 08:00:00,26.7,21.6,29.97,SW,225,2.9,6.0,81,0.00,,,0.00,WUHU216HW,2013-02-20 15:00:00,
2013-02-20 08:05:00,26.7,21.6,29.98,SSW,203,0.8,6.0,81,0.00,,,0.00,WUHU216HW,2013-02-20 15:05:00,
2013-02-20 08:10:00,26.9,21.5,29.97,SW,225,2.4,5.1,80,0.00,,,0.00,WUHU216HW,2013-02-20 15:10:00,
2013-02-20 08:15:00,26.9,21.5,29.98,SW,225,4.9,4.9,80,0.00,,,0.00,WUHU216HW,2013-02-20 15:15:00,
2013-02-20 08:20:00,27.1,21.7,29.98,SW,225,2.2,5.5,80,0.00,,,0.00,WUHU216HW,2013-02-20 15:20:00,
2013-02-20 08:25:00,27.1,21.7,29.98,SSW,203,2.6,5.5,80,0.00,,,0.00,WUHU216HW,2013-02-20 15:25:00,
2013-02-20 08:30:00,27.3,21.9,29.98,SSW,203,0.0,3.1,80,0.00,,,0.00,WUHU216HW,2013-02-20 15:30:00,
2013-02-20 08:35:00,27.3,21.9,29.98,SSW,203,7.3,7.3,80,0.00,,,0.00,WUHU216HW,2013-02-20 15:35:00,
2013-02-20 08:40:00,27.5,21.7,29.98,WSW,248,0.0,7.3,79,0.00,,,0.00,WUHU216HW,2013-02-20 15:40:00,
2013-02-20 08:45:00,27.6,21.9,29.98,SW,225,0.0,2.9,79,0.00,,,0.00,WUHU216HW,2013-02-20 15:45:00,
2013-02-20 08:50:00,27.6,21.9,29.98,SSW,203,0.0,5.3,79,0.00,,,0.00,WUHU216HW,2013-02-20 15:50:00,
2013-02-20 08:55:00,27.6,21.9,29.98,SW,225,2.9,5.3,79,0.00,,,0.00,WUHU216HW,2013-02-20 15:55:00,
2013-02-20 09:00:00,27.6,21.9,29.98,SSW,203,3.8,5.5,79,0.00,,,0.00,WUHU216HW,2013-02-20 16:00:00,
2013-02-20 09:06:00,27.6,21.9,29.99,SSW,203,2.9,6.9,79,0.00,,,0.00,WUHU216HW,2013-02-20 16:06:00,
2013-02-20 09:11:00,28.0,22.3,29.98,SW,225,0.0,6.9,79,0.00,,,0.00,WUHU216HW,2013-02-20 16:11:00,
2013-02-20 09:16:00,28.2,22.5,29.98,SW,225,5.3,5.3,79,0.00,,,0.00,WUHU216HW,2013-02-20 16:16:00,
2013-02-20 09:21:00,28.2,22.2,29.98,SW,225,3.3,5.3,78,0.00,,,0.00,WUHU216HW,2013-02-20 16:21:00,
2013-02-20 09:26:00,28.5,22.5,29.98,SW,225,4.6,4.6,78,0.00,,,0.00,WUHU216HW,2013-02-20 16:26:00,
2013-02-20 09:31:00,28.9,22.6,29.98,SW,225,1.1,4.6,77,0.00,,,0.00,WUHU216HW,2013-02-20 16:31:00,
2013-02-20 09:36:00,29.3,22.9,29.98,WSW,248,2.6,4.0,77,0.00,,,0.00,WUHU216HW,2013-02-20 16:36:00,
2013-02-20 09:41:00,30.0,23.6,29.98,West,270,0.0,4.0,77,0.00,,,0.00,WUHU216HW,2013-02-20 16:41:00,
2013-02-20 09:46:00,30.7,24.0,29.98,SSW,203,1.3,3.5,76,0.00,,,0.00,WUHU216HW,2013-02-20 16:46:00,
2013-02-20 09:51:00,31.6,24.6,29.98,SSW,203,3.1,3.5,75,0.00,,,0.00,WUHU216HW,2013-02-20 16:51:00,
2013-02-20 09:56:00,32.1,24.8,29.98,WSW,248,0.0,3.1,74,0.00,,,0.00,WUHU216HW,2013-02-20 16:56:00,
2013-02-20 10:01:00,32.9,24.8,29.98,West,270,1.5,8.9,72,0.00,,,0.00,WUHU216HW,2013-02-20 17:01:00,
2013-02-20 10:06:00,33.4,24.9,29.98,WSW,248,1.7,8.9,71,0.00,,,0.00,WUHU216HW,2013-02-20 17:06:00,
2013-02-20 10:11:00,33.6,24.8,29.98,West,270,5.3,5.3,70,0.00,,,0.00,WUHU216HW,2013-02-20 17:11:00,
2013-02-20 10:16:00,33.8,24.2,29.98,WSW,248,2.0,5.3,68,0.00,,,0.00,WUHU216HW,2013-02-20 17:16:00,
2013-02-20 10:21:00,33.9,24.4,29.98,West,270,2.0,5.8,68,0.00,,,0.00,WUHU216HW,2013-02-20 17:21:00,
2013-02-20 10:28:00,34.5,24.6,29.99,SW,225,2.9,5.8,67,0.00,,,0.00,WUHU216HW,2013-02-20 17:28:00,
2013-02-20 10:33:00,34.8,24.6,29.99,West,270,5.8,5.8,66,0.00,,,0.00,WUHU216HW,2013-02-20 17:33:00,
2013-02-20 10:38:00,35.2,24.6,29.99,West,270,2.6,5.8,65,0.00,,,0.00,WUHU216HW,2013-02-20 17:38:00,
2013-02-20 10:43:00,35.2,24.6,29.99,West,270,2.2,4.9,65,0.00,,,0.00,WUHU216HW,2013-02-20 17:43:00,
2013-02-20 10:49:00,35.4,24.4,29.99,SW,225,8.2,8.2,64,0.00,,,0.00,WUHU216HW,2013-02-20 17:49:00,
2013-02-20 10:54:00,35.7,24.4,29.98,West,270,1.1,8.2,63,0.00,,,0.00,WUHU216HW,2013-02-20 17:54:00,
2013-02-20 10:59:00,35.6,24.0,29.98,West,270,6.7,6.7,62,0.00,,,0.00,WUHU216HW,2013-02-20 17:59:00,
2013-02-20 11:04:00,35.2,23.3,29.99,WSW,248,2.9,6.7,61,0.00,,,0.00,WUHU216HW,2013-02-20 18:04:00,
2013-02-20 11:09:00,34.3,22.4,29.98,WSW,248,2.6,7.1,61,0.00,,,0.00,WUHU216HW,2013-02-20 18:09:00,
2013-02-20 11:14:00,33.8,22.1,29.98,WNW,293,3.3,7.1,62,0.00,,,0.00,WUHU216HW,2013-02-20 18:14:00,
2013-02-20 11:19:00,33.4,22.1,29.98,SSW,203,4.6,6.0,63,0.00,,,0.00,WUHU216HW,2013-02-20 18:19:00,
2013-02-20 11:24:00,33.0,21.8,29.98,WSW,248,4.9,7.8,63,0.00,,,0.00,WUHU216HW,2013-02-20 18:24:00,
2013-02-20 11:29:00,32.9,21.6,29.98,SW,225,2.0,7.8,63,0.00,,,0.00,WUHU216HW,2013-02-20 18:29:00,
2013-02-20 11:34:00,33.0,21.8,29.98,West,270,2.9,5.1,63,0.00,,,0.00,WUHU216HW,2013-02-20 18:34:00,
2013-02-20 11:39:00,33.0,21.8,29.98,West,270,1.3,5.8,63,0.00,,,0.00,WUHU216HW,2013-02-20 18:39:00,
2013-02-20 11:44:00,33.0,21.6,29.98,WSW,248,5.8,5.8,63,0.00,,,0.00,WUHU216HW,2013-02-20 18:44:00,
2013-02-20 11:49:00,33.0,21.8,29.99,WSW,248,3.1,5.8,63,0.00,,,0.00,WUHU216HW,2013-02-20 18:49:00,
2013-02-20 11:54:00,33.2,21.9,29.99,WSW,248,3.5,7.6,63,0.00,,,0.00,WUHU216HW,2013-02-20 18:54:00,
2013-02-20 11:59:00,33.2,21.6,29.99,West,270,6.0,8.5,62,0.00,,,0.00,WUHU216HW,2013-02-20 18:59:00,
2013-02-20 12:05:00,33.4,22.1,29.98,West,270,6.2,8.5,63,0.00,,,0.00,WUHU216HW,2013-02-20 19:05:00,
2013-02-20 12:10:00,33.2,21.9,29.99,West,270,1.7,6.7,63,0.00,,,0.00,WUHU216HW,2013-02-20 19:10:00,
2013-02-20 12:15:00,33.2,21.9,29.98,SW,225,2.9,6.2,63,0.00,,,0.00,WUHU216HW,2013-02-20 19:15:00,
2013-02-20 12:20:00,33.4,22.1,29.98,WNW,293,2.4,4.9,63,0.00,,,0.00,WUHU216HW,2013-02-20 19:20:00,
2013-02-20 12:25:00,33.4,22.1,29.98,West,270,4.0,5.8,63,0.00,,,0.00,WUHU216HW,2013-02-20 19:25:00,
2013-02-20 12:30:00,33.6,22.2,29.98,West,270,2.4,5.8,63,0.00,,,0.00,WUHU216HW,2013-02-20 19:30:00,
2013-02-20 12:35:00,33.6,22.2,29.98,West,270,0.0,4.2,63,0.00,,,0.00,WUHU216HW,2013-02-20 19:35:00,
2013-02-20 12:40:00,33.8,22.4,29.98,West,270,4.6,7.6,63,0.00,,,0.00,WUHU216HW,2013-02-20 19:40:00,
2013-02-20 12:45:00,33.6,21.9,29.98,NW,315,6.0,8.7,62,0.00,,,0.00,WUHU216HW,2013-02-20 19:45:00,
2013-02-20 12:50:00,33.6,21.9,29.98,West,270,4.2,8.7,62,0.00,,,0.00,WUHU216HW,2013-02-20 19:50:00,
2013-02-20 12:56:00,33.6,21.9,29.98,WNW,293,3.5,4.4,62,0.00,,,0.00,WUHU216HW,2013-02-20 19:56:00,
2013-02-20 13:01:00,33.6,21.9,29.98,West,270,3.8,7.1,62,0.00,,,0.00,WUHU216HW,2013-02-20 20:01:00,
2013-02-20 13:06:00,33.6,21.9,29.97,WNW,293,4.0,7.1,62,0.00,,,0.00,WUHU216HW,2013-02-20 20:06:00,
2013-02-20 13:11:00,33.6,21.9,29.97,NW,315,5.5,11.6,62,0.00,,,0.00,WUHU216HW,2013-02-20 20:11:00,
2013-02-20 13:16:00,33.6,21.9,29.97,NW,315,6.7,11.6,62,0.00,,,0.00,WUHU216HW,2013-02-20 20:16:00,
2013-02-20 13:21:00,33.4,21.7,29.98,NW,315,4.2,8.7,62,0.00,,,0.00,WUHU216HW,2013-02-20 20:21:00,
2013-02-20 13:26:00,33.6,21.9,29.97,NNW,338,10.9,10.9,62,0.00,,,0.00,WUHU216HW,2013-02-20 20:26:00,
2013-02-20 13:31:00,33.6,21.5,29.97,NW,315,0.0,11.1,61,0.00,,,0.00,WUHU216HW,2013-02-20 20:31:00,
2013-02-20 13:36:00,33.6,21.9,29.97,NW,315,4.6,11.1,62,0.00,,,0.00,WUHU216HW,2013-02-20 20:36:00,
2013-02-20 13:41:00,33.8,21.7,29.97,West,270,2.6,4.9,61,0.00,,,0.00,WUHU216HW,2013-02-20 20:41:00,
2013-02-20 13:46:00,33.9,21.9,29.97,West,270,0.6,14.3,61,0.00,,,0.00,WUHU216HW,2013-02-20 20:46:00,
2013-02-20 13:51:00,34.1,21.7,29.97,West,270,1.1,14.3,60,0.00,,,0.00,WUHU216HW,2013-02-20 20:51:00,
2013-02-20 13:56:00,34.3,21.9,29.97,West,270,2.9,4.2,60,0.00,,,0.00,WUHU216HW,2013-02-20 20:56:00,
2013-02-20 14:01:00,34.3,21.9,29.97,West,270,0.0,6.9,60,0.00,,,0.00,WUHU216HW,2013-02-20 21:01:00,
2013-02-20 14:06:00,34.3,21.4,29.97,West,270,1.7,6.9,59,0.00,,,0.00,WUHU216HW,2013-02-20 21:06:00,
2013-02-20 14:11:00,34.3,21.4,29.97,NW,315,4.2,4.2,59,0.00,,,0.00,WUHU216HW,2013-02-20 21:11:00,
2013-02-20 14:16:00,34.3,21.4,29.97,WNW,293,4.9,8.2,59,0.00,,,0.00,WUHU216HW,2013-02-20 21:16:00,
2013-02-20 14:21:00,34.1,21.3,29.97,West,270,3.3,8.2,59,0.00,,,0.00,WUHU216HW,2013-02-20 21:21:00,
2013-02-20 14:27:00,34.3,21.4,29.97,NNW,338,0.0,6.7,59,0.00,,,0.00,WUHU216HW,2013-02-20 21:27:00,
2013-02-20 14:32:00,34.1,21.3,29.97,West,270,4.0,6.7,59,0.00,,,0.00,WUHU216HW,2013-02-20 21:32:00,
2013-02-20 14:37:00,34.1,20.8,29.97,WNW,293,1.3,6.0,58,0.00,,,0.00,WUHU216HW,2013-02-20 21:37:00,
2013-02-20 14:42:00,34.1,20.8,29.97,West,270,4.9,4.9,58,0.00,,,0.00,WUHU216HW,2013-02-20 21:42:00,
2013-02-20 14:47:00,34.1,20.8,29.96,SW,225,4.9,6.0,58,0.00,,,0.00,WUHU216HW,2013-02-20 21:47:00,
2013-02-20 14:52:00,34.3,21.0,29.96,West,270,1.5,6.0,58,0.00,,,0.00,WUHU216HW,2013-02-20 21:52:00,
2013-02-20 14:57:00,34.3,20.1,29.96,West,270,1.3,5.3,56,0.00,,,0.00,WUHU216HW,2013-02-20 21:57:00,
2013-02-20 15:02:00,34.3,20.1,29.96,SW,225,5.5,7.6,56,0.00,,,0.00,WUHU216HW,2013-02-20 22:02:00,
2013-02-20 15:07:00,34.3,19.7,29.96,WNW,293,7.8,7.8,55,0.00,,,0.00,WUHU216HW,2013-02-20 22:07:00,
2013-02-20 15:12:00,34.3,19.7,29.96,SW,225,5.5,7.8,55,0.00,,,0.00,WUHU216HW,2013-02-20 22:12:00,
2013-02-20 15:17:00,34.1,19.5,29.96,SW,225,2.9,10.5,55,0.00,,,0.00,WUHU216HW,2013-02-20 22:17:00,
2013-02-20 15:22:00,34.1,19.5,29.96,West,270,5.8,10.5,55,0.00,,,0.00,WUHU216HW,2013-02-20 22:22:00,
2013-02-20 15:27:00,33.9,19.4,29.96,West,270,6.4,6.4,55,0.00,,,0.00,WUHU216HW,2013-02-20 22:27:00,
2013-02-20 15:33:00,33.8,19.2,29.96,WSW,248,2.4,6.4,55,0.00,,,0.00,WUHU216HW,2013-02-20 22:33:00,
2013-02-20 15:38:00,33.6,19.4,29.96,WNW,293,2.4,5.1,56,0.00,,,0.00,WUHU216HW,2013-02-20 22:38:00,
2013-02-20 15:43:00,33.6,19.4,29.96,West,270,2.0,8.5,56,0.00,,,0.00,WUHU216HW,2013-02-20 22:43:00,
2013-02-20 15:48:00,33.6,20.3,29.96,West,270,6.0,8.5,58,0.00,,,0.00,WUHU216HW,2013-02-20 22:48:00,
2013-02-20 15:53:00,33.4,20.1,29.96,West,270,6.7,7.6,58,0.00,,,0.00,WUHU216HW,2013-02-20 22:53:00,
2013-02-20 15:58:00,33.2,20.0,29.97,West,270,1.3,7.8,58,0.00,,,0.00,WUHU216HW,2013-02-20 22:58:00,
2013-02-20 16:03:00,33.2,20.0,29.97,WSW,248,2.6,7.8,58,0.00,,,0.00,WUHU216HW,2013-02-20 23:03:00,
2013-02-20 16:08:00,33.2,20.4,29.97,West,270,4.6,4.6,59,0.00,,,0.00,WUHU216HW,2013-02-20 23:08:00,
2013-02-20 16:13:00,33.0,19.8,29.97,NW,315,7.8,9.1,58,0.00,,,0.00,WUHU216HW,2013-02-20 23:13:00,
2013-02-20 16:18:00,32.9,19.7,29.97,NW,315,0.2,9.1,58,0.00,,,0.00,WUHU216HW,2013-02-20 23:18:00,
2013-02-20 16:23:00,32.7,19.5,29.97,WNW,293,0.0,7.3,58,0.00,,,0.00,WUHU216HW,2013-02-20 23:23:00,
2013-02-20 16:28:00,32.5,19.3,29.97,West,270,2.0,5.5,58,0.00,,,0.00,WUHU216HW,2013-02-20 23:28:00,
2013-02-20 16:33:00,32.1,19.0,29.97,West,270,4.6,6.4,58,0.00,,,0.00,WUHU216HW,2013-02-20 23:33:00,
2013-02-20 16:37:00,32.1,19.0,29.97,WSW,248,0.0,6.4,58,0.00,,,0.00,WUHU216HW,2013-02-20 23:37:00,
2013-02-20 16:42:00,31.8,19.1,29.97,West,270,1.1,5.5,59,0.00,,,0.00,WUHU216HW,2013-02-20 23:42:00,
2013-02-20 16:48:00,31.8,19.1,29.97,West,270,0.6,2.4,59,0.00,,,0.00,WUHU216HW,2013-02-20 23:48:00,
2013-02-20 16:53:00,31.6,18.9,29.97,West,270,3.3,3.3,59,0.00,,,0.00,WUHU216HW,2013-02-20 23:53:00,
2013-02-20 17:00:00,31.6,18.5,29.97,West,270,4.2,6.9,58,0.00,,,0.00,WUHU216HW,2013-02-21 00:00:00,
2013-02-20 17:06:00,31.6,18.5,29.97,WNW,293,2.0,6.9,58,0.00,,,0.00,WUHU216HW,2013-02-21 00:06:00,
2013-02-20 17:11:00,31.6,18.1,29.98,West,270,2.0,5.1,57,0.00,,,0.00,WUHU216HW,2013-02-21 00:11:00,
2013-02-20 17:17:00,31.6,18.5,29.97,West,270,2.2,5.1,58,0.00,,,0.00,WUHU216HW,2013-02-21 00:17:00,
2013-02-20 17:22:00,31.6,18.5,29.97,West,270,0.0,5.1,58,0.00,,,0.00,WUHU216HW,2013-02-21 00:22:00,
2013-02-20 17:27:00,32.0,18.8,29.97,West,270,3.5,3.5,58,0.00,,,0.00,WUHU216HW,2013-02-21 00:27:00,
2013-02-20 17:32:00,32.1,19.0,29.98,NW,315,4.2,4.2,58,0.00,,,0.00,WUHU216HW,2013-02-21 00:32:00,
2013-02-20 17:37:00,32.3,19.2,29.97,NNW,338,4.2,5.3,58,0.00,,,0.00,WUHU216HW,2013-02-21 00:37:00,
2013-02-20 17:43:00,32.1,18.6,29.98,NW,315,2.6,9.1,57,0.00,,,0.00,WUHU216HW,2013-02-21 00:43:00,
2013-02-20 17:48:00,32.1,18.6,29.98,WNW,293,4.4,9.1,57,0.00,,,0.00,WUHU216HW,2013-02-21 00:48:00,
2013-02-20 17:53:00,31.8,18.2,29.98,West,270,1.7,5.1,57,0.00,,,0.00,WUHU216HW,2013-02-21 00:53:00,
2013-02-20 17:58:00,31.8,18.2,29.99,West,270,2.4,5.1,57,0.00,,,0.00,WUHU216HW,2013-02-21 00:58:00,
2013-02-20 18:03:00,31.2,17.7,29.99,WNW,293,0.0,5.3,57,0.00,,,0.00,WUHU216HW,2013-02-21 01:03:00,
2013-02-20 18:09:00,30.9,17.8,29.99,WNW,293,3.5,5.3,58,0.00,,,0.00,WUHU216HW,2013-02-21 01:09:00,
2013-02-20 18:14:00,30.5,17.4,29.99,WNW,293,0.0,4.2,58,0.00,,,0.00,WUHU216HW,2013-02-21 01:14:00,
2013-02-20 18:18:00,30.2,17.1,29.99,West,270,1.1,3.5,58,0.00,,,0.00,WUHU216HW,2013-02-21 01:18:00,
2013-02-20 18:23:00,29.8,17.3,29.99,WSW,248,2.0,2.4,59,0.00,,,0.00,WUHU216HW,2013-02-21 01:23:00,
2013-02-20 18:28:00,29.4,17.3,29.99,WSW,248,0.0,2.4,60,0.00,,,0.00,WUHU216HW,2013-02-21 01:28:00,
2013-02-20 18:33:00,29.1,16.9,29.99,West,270,0.0,2.6,60,0.00,,,0.00,WUHU216HW,2013-02-21 01:33:00,
2013-02-20 18:39:00,28.9,17.1,29.99,SW,225,3.8,4.0,61,0.00,,,0.00,WUHU216HW,2013-02-21 01:39:00,
2013-02-20 18:44:00,28.5,16.8,29.99,West,270,1.3,4.0,61,0.00,,,0.00,WUHU216HW,2013-02-21 01:44:00,
2013-02-20 18:49:00,28.5,17.2,30.00,West,270,2.9,2.9,62,0.00,,,0.00,WUHU216HW,2013-02-21 01:49:00,
2013-02-20 18:54:00,28.2,16.8,30.00,West,270,1.3,3.1,62,0.00,,,0.00,WUHU216HW,2013-02-21 01:54:00,
2013-02-20 18:59:00,28.2,16.8,30.00,West,270,0.0,3.1,62,0.00,,,0.00,WUHU216HW,2013-02-21 01:59:00,
2013-02-20 19:05:00,28.0,16.7,29.99,West,270,0.0,2.9,62,0.00,,,0.00,WUHU216HW,2013-02-21 02:05:00,
2013-02-20 19:10:00,27.8,16.5,30.00,SSW,203,1.7,4.0,62,0.00,,,0.00,WUHU216HW,2013-02-21 02:10:00,
2013-02-20 19:15:00,27.6,16.7,30.00,West,270,0.0,4.0,63,0.00,,,0.00,WUHU216HW,2013-02-21 02:15:00,
2013-02-20 19:20:00,27.5,16.5,30.00,SSW,203,0.0,3.5,63,0.00,,,0.00,WUHU216HW,2013-02-21 02:20:00,
2013-02-20 19:25:00,27.3,16.3,30.00,SSW,203,2.4,4.0,63,0.00,,,0.00,WUHU216HW,2013-02-21 02:25:00,
2013-02-20 19:31:00,27.1,16.5,30.00,SW,225,0.0,4.0,64,0.00,,,0.00,WUHU216HW,2013-02-21 02:31:00,
2013-02-20 19:36:00,26.9,16.3,30.00,SSW,203,3.8,4.2,64,0.00,,,0.00,WUHU216HW,2013-02-21 02:36:00,
2013-02-20 19:41:00,26.7,16.1,30.01,SW,225,2.9,4.2,64,0.00,,,0.00,WUHU216HW,2013-02-21 02:41:00,
2013-02-20 19:46:00,26.7,16.1,30.01,SSW,203,0.0,2.9,64,0.00,,,0.00,WUHU216HW,2013-02-21 02:46:00,
2013-02-20 19:51:00,26.7,16.5,30.01,SW,225,3.5,3.5,65,0.00,,,0.00,WUHU216HW,2013-02-21 02:51:00,
2013-02-20 19:57:00,26.6,16.3,30.01,SW,225,3.8,3.8,65,0.00,,,0.00,WUHU216HW,2013-02-21 02:57:00,
2013-02-20 20:02:00,26.7,16.5,30.01,SSW,203,4.2,4.9,65,0.00,,,0.00,WUHU216HW,2013-02-21 03:02:00,
2013-02-20 20:07:00,26.7,16.5,30.01,SSW,203,7.3,7.3,65,0.00,,,0.00,WUHU216HW,2013-02-21 03:07:00,
2013-02-20 20:12:00,26.9,16.5,30.01,SSW,203,3.3,7.3,65,0.00,,,0.00,WUHU216HW,2013-02-21 03:12:00,
2013-02-20 20:17:00,26.9,16.7,30.01,SSW,203,5.1,5.5,65,0.00,,,0.00,WUHU216HW,2013-02-21 03:17:00,
2013-02-20 20:23:00,26.7,16.8,30.01,SSW,203,6.0,6.9,66,0.00,,,0.00,WUHU216HW,2013-02-21 03:23:00,
2013-02-20 20:28:00,26.7,16.8,30.02,SSW,203,2.4,6.9,66,0.00,,,0.00,WUHU216HW,2013-02-21 03:28:00,
2013-02-20 20:33:00,26.7,16.7,30.02,SSW,203,3.5,5.3,66,0.00,,,0.00,WUHU216HW,2013-02-21 03:33:00,
2013-02-20 20:38:00,26.6,16.5,30.02,SW,225,2.6,5.3,66,0.00,,,0.00,WUHU216HW,2013-02-21 03:38:00,
2013-02-20 20:43:00,26.4,16.5,30.02,SSW,203,3.1,5.1,66,0.00,,,0.00,WUHU216HW,2013-02-21 03:43:00,
2013-02-20 20:49:00,26.2,16.3,30.02,SSW,203,3.1,4.2,66,0.00,,,0.00,WUHU216HW,2013-02-21 03:49:00,
2013-02-20 20:54:00,26.2,16.3,30.02,South,180,3.3,4.0,66,0.00,,,0.00,WUHU216HW,2013-02-21 03:54:00,
2013-02-20 20:59:00,26.0,16.5,30.02,South,180,1.3,4.0,67,0.00,,,0.00,WUHU216HW,2013-02-21 03:59:00,
2013-02-20 21:04:00,25.8,16.3,30.02,SSW,203,2.4,4.4,67,0.00,,,0.00,WUHU216HW,2013-02-21 04:04:00,
2013-02-20 21:09:00,25.8,16.3,30.02,SSW,203,2.4,4.4,67,0.00,,,0.00,WUHU216HW,2013-02-21 04:09:00,
2013-02-20 21:15:00,25.7,16.5,30.02,SSW,203,2.9,4.2,68,0.00,,,0.00,WUHU216HW,2013-02-21 04:15:00,
2013-02-20 21:20:00,25.7,16.5,30.02,SSE,158,0.0,4.9,68,0.00,,,0.00,WUHU216HW,2013-02-21 04:20:00,
2013-02-20 21:25:00,25.8,16.7,30.02,South,180,2.0,4.9,68,0.00,,,0.00,WUHU216HW,2013-02-21 04:25:00,
2013-02-20 21:30:00,25.8,16.7,30.03,South,180,2.4,3.1,68,0.00,,,0.00,WUHU216HW,2013-02-21 04:30:00,
2013-02-20 21:35:00,25.8,16.7,30.03,SSW,203,2.0,4.9,68,0.00,,,0.00,WUHU216HW,2013-02-21 04:35:00,
2013-02-20 21:41:00,25.8,16.7,30.03,SSW,203,2.4,4.9,68,0.00,,,0.00,WUHU216HW,2013-02-21 04:41:00,
2013-02-20 21:46:00,25.8,16.7,30.03,SSW,203,5.8,6.0,68,0.00,,,0.00,WUHU216HW,2013-02-21 04:46:00,
2013-02-20 21:51:00,25.8,16.7,30.03,SSW,203,4.2,6.0,68,0.00,,,0.00,WUHU216HW,2013-02-21 04:51:00,
2013-02-20 21:56:00,25.7,16.5,30.03,SSW,203,4.9,5.8,68,0.00,,,0.00,WUHU216HW,2013-02-21 04:56:00,
2013-02-20 22:01:00,25.7,16.5,30.03,South,180,4.9,5.8,68,0.00,,,0.00,WUHU216HW,2013-02-21 05:01:00,
2013-02-20 22:07:00,25.5,16.3,30.03,SSW,203,3.3,6.4,68,0.00,,,0.00,WUHU216HW,2013-02-21 05:07:00,
2013-02-20 22:12:00,25.5,16.3,30.03,SSW,203,4.2,7.6,68,0.00,,,0.00,WUHU216HW,2013-02-21 05:12:00,
2013-02-20 22:17:00,25.3,16.1,30.03,SSW,203,3.8,7.6,68,0.00,,,0.00,WUHU216HW,2013-02-21 05:17:00,
2013-02-20 22:22:00,25.1,15.9,30.03,SSW,203,4.4,4.4,68,0.00,,,0.00,WUHU216HW,2013-02-21 05:22:00,
2013-02-20 22:27:00,24.9,16.1,30.03,SSW,203,4.6,4.6,69,0.00,,,0.00,WUHU216HW,2013-02-21 05:27:00,
2013-02-20 22:33:00,24.9,16.1,30.03,SSW,203,5.5,5.5,69,0.00,,,0.00,WUHU216HW,2013-02-21 05:33:00,
2013-02-20 22:38:00,24.9,16.1,30.03,SSW,203,5.3,5.5,69,0.00,,,0.00,WUHU216HW,2013-02-21 05:38:00,
2013-02-20 22:43:00,24.9,16.1,30.04,SSW,203,5.5,5.5,69,0.00,,,0.00,WUHU216HW,2013-02-21 05:43:00,
2013-02-20 22:48:00,24.8,16.3,30.04,SW,225,3.3,5.5,70,0.00,,,0.00,WUHU216HW,2013-02-21 05:48:00,
2013-02-20 22:53:00,24.8,16.3,30.04,SSW,203,4.0,5.1,70,0.00,,,0.00,WUHU216HW,2013-02-21 05:53:00,
2013-02-20 22:59:00,24.6,16.1,30.03,North,0,0.0,5.1,70,0.00,,,0.00,WUHU216HW,2013-02-21 05:59:00,
2013-02-20 23:04:00,24.6,16.1,30.03,SW,225,1.5,5.1,70,0.00,,,0.00,WUHU216HW,2013-02-21 06:04:00,
2013-02-20 23:09:00,24.6,16.1,30.03,SW,225,3.1,4.9,70,0.00,,,0.00,WUHU216HW,2013-02-21 06:09:00,
2013-02-20 23:14:00,24.6,16.1,30.04,SSW,203,2.2,5.5,70,0.00,,,0.00,WUHU216HW,2013-02-21 06:14:00,
2013-02-20 23:20:00,24.4,16.0,30.03,SSW,203,1.3,4.9,70,0.00,,,0.00,WUHU216HW,2013-02-21 06:20:00,
2013-02-20 23:25:00,24.4,16.3,30.04,SW,225,2.0,7.8,71,0.00,,,0.00,WUHU216HW,2013-02-21 06:25:00,
2013-02-20 23:30:00,24.4,16.3,30.04,SW,225,0.0,7.8,71,0.00,,,0.00,WUHU216HW,2013-02-21 06:30:00,
2013-02-20 23:35:00,24.2,16.3,30.03,SW,225,2.4,6.4,71,0.00,,,0.00,WUHU216HW,2013-02-21 06:35:00,
2013-02-20 23:40:00,24.4,16.3,30.03,SSW,203,2.6,5.5,71,0.00,,,0.00,WUHU216HW,2013-02-21 06:40:00,
2013-02-20 23:46:00,24.0,15.9,30.04,SW,225,4.0,6.4,71,0.00,,,0.00,WUHU216HW,2013-02-21 06:46:00,
2013-02-20 23:51:00,24.0,15.9,30.04,SSW,203,2.0,6.4,71,0.00,,,0.00,WUHU216HW,2013-02-21 06:51:00,
2013-02-20 23:56:00,24.0,15.9,30.04,SSW,203,3.1,4.2,71,0.00,,,0.00,WUHU216HW,2013-02-21 06:56:00,